{"data":{"norad_id":54676,"intl_designator":"2022-166AL","name":"ONEWEB-0615","alt_names":[],"object_type":"PAYLOAD","status":"ACTIVE","operator":null,"country":"UK","launch_date":"2022-12-08","launch_site_code":"AFETR","launch_vehicle":null,"mission":null,"orbit_class":"UNKNOWN","rcs_meters":null,"size_class":null,"mass_kg":null,"dimensions":null,"purposes":["comms"],"wikipedia_slug":null,"has_3d_model":false,"image_url":null,"decayed_at":null,"tle_current":{"epoch":"2026-09-20T04:10:29.123616Z","epoch_age_seconds":50200,"freshness":"FRESH","line1":"1 54676U 22166AL  26263.17394819  .00000011  00000+0 -51273-5 0  9991","line2":"2 54676  87.9276 225.0801 0001950  72.8396 287.2951 13.21824055183992","mean_motion":13.21824055,"eccentricity":0.000195,"inclination_deg":87.9276,"raan_deg":225.0801,"arg_perigee_deg":72.8396,"mean_anomaly_deg":287.2951,"bstar":-5.1273e-6,"rev_number":18399,"period_min":108.94036876943,"perigee_km":1176.287380383,"apogee_km":1179.2341805174,"semimajor_km":7555.8977804502,"source":"CELESTRAK","updated_at":"2026-09-20T09:00:44.748392Z"}}}